Location: Newark
(44.0160°N, 116.9215°W)
Time: 14:33:49
(UTC+00:00)

Envisat - Pass Details

Date: 26 November 2019
Orbit: 764 x 766 km, 98.1° (Epoch: 04 December)

Event Time Altitude Azimuth Distance (km) Brightness Sun altitude
Rises 01:13:30 0° 150° (SSE) 3,219 6.1 -10.7°
Reaches altitude 10° 01:15:50 10° 145° (SE) 2,297 5.3 -11.1°
Maximum altitude 01:20:43 51° 71° (ENE) 962 3.1 -11.9°
Drops below altitude 10° 01:25:38 10° 357° (N) 2,311 5.3 -12.7°
Sets 01:28:00 0° 352° (N) 3,242 6.2 -13.1°
